SCP
0 0 0 0 0 0 0 0 0 0 0 0 0 0 0 0 0 0 0 0 0 0 0 0 0 0 0 0 0 0 0 0 0 0 0 0 0 0 0 0 0 0 -0 0 0 0 0 0 0 0 0 0 0 0
0 0 0 0 0 0 0 0 0 0 0 0 0 0 0 0 0 0 0 0 0 0 0 0 0 0 0 0 0 0 0 0 0 0 0 0 0 0 0 0 0 -0 0 0 -0 0 0 -0 0 0 0 0 0 0
0 0 0 0 0 0 0 0 0 0 0 0 0 0 0 0 0 0 0 0 0 0 0 0 0 0 -0 0 0 0 0 0 0 0 0 0 0 0 0 0 0 0 0 -0 0 0 0 0 0 0 0 0 0 0
0 0 0 0 0 0 0 0 0 0 0 0 0 0 0 0 0 0 0 0 0 0 0 0 0 0 -0 -0 -0 0 0 0 0 0 0 0 0 0 0 0 0 0 0 0 0 0 0 0 0 0 0 0 0 0
0 0 0 0 0 0 0 0 0 0 0 0 0 0 0 0 0 0 0 0 0 0 0 -0 0 0 -0 -0 -0 0 0 0 0 0 0 -0 0 0 0 0 0 -0 0 0 0 0 0 0 0 0 0 0 0 0
0 0 0 0 0 0 0 0 0 0 0 0 0 0 0 0 0 0 0 0 0 0 0 -0 0 0 -0 0 0 0 0 0 0 0 0 0 0 0 0 0 0 -0 -0 0 0 0 0 0 0 0 0 0 0 0
0 0 0 0 0 0 0 0 0 0 0 0 0 0 0 0 0 0 0 0 0 0 0 0 0 0 0 0 0 0 0 0 0 0 0 0 0 0 0 0 0 0 0 -0 0 0 0 0 0 0 0 0 0 0
0 0 0 0 0 0 0 0 0 0 0 0 0 0 0 0 0 0 0 0 0 0 0 0 0 0 0 0 0 0 0 0 0 0 0 0 0 0 0 0 -0 -0 0 0 0 0 0 0 0 0 0 0 0 0
0 0 0 0 0 0 0 0 0 0 0 0 0 0 0 0 0 0 0 0 0 0 0 0 -0 0 0 0 0 0 0 0 0 0 0 0 0 0 0 0 0 -0 0 0 0 0 0 0 0 0 0 0 0 0
0 0 0 0 0 0 0 0 0 0 0 0 0 0 0 0 0 0 0 0 0 0 0 0 -0 0 0 0 0 0 0 0 0 0 0 0 0 -0 0 0 0 0 0 0 0 0 0 0 0 0 0 0 0 0
0 0 0 0 0 0 0 0 0 0 0 0 0 0 0 0 0 0 0 0 0 0 0 0 0 -0 -0 0 0 0 0 0 0 0 0 0 0 0 0 0 -0 0 0 0 0 0 0 0 0 0 0 0 0 0
0 0 0 0 0 0 0 0 0 0 0 0 0 0 0 0 0 0 0 0 0 0 0 0 0 0 0 0 0 0 0 0 0 0 0 0 0 0 -0 -0 0 0 0 0 0 0 0 0 0 0 0 0 0 0
0 0 0 0 0 0 0 0 0 0 0 0 0 0 0 0 0 0 0 0 0 0 0 0 0 0 0 0 0 0 0 0 0 0 0 0 0 0 -0 0 0 0 0 0 0 0 0 0 0 0 0 0 0 0
0 0 0 0 0 0 0 0 0 0 0 0 0 0 0 0 0 0 0 0 0 0 0 0 0 0 0 0 0 0 0 0 0 0 0 0 0 0 0 0 0 0 0 0 0 0 0 0 0 0 0 0 0 0
0 0 0 0 0 0 0 0 0 0 0 0 0 0 0 0 0 0 0 0 0 0 0 0 0 0 0 0 0 0 0 0 0 0 0 0 0 0 0 0 0 0 0 0 0 0 0 0 0 0 0 0 0 0
0 0 0 0 0 0 0 0 0 0 0 0 0 0 0 0 0 0 0 -0 0 -0 -0 0 0 0 0 0 0 0 0 0 0 0 0 0 0 0 0 0 0 0 0 0 0 0 0 0 0 0 0 0 0 0
0 0 0 0 0 0 0 0 0 0 0 0 0 0 0 0 0 0 0 0 0 0 0 0 0 0 0 0 0 0 0 0 0 0 0 0 0 0 0 0 0 0 0 0 0 0 0 0 0 0 0 0 0 0
0 0 0 0 0 0 0 0 0 0 0 0 0 0 0 0 0 0 0 0 0 0 0 0 0 0 0 0 0 0 0 0 0 0 0 0 0 0 0 0 0 0 0 0 0 0 0 0 0 0 0 0 0 0
0 0 0 0 0 0 0 0 0 0 0 0 0 0 0 0 0 0 0 0 0 0 0 0 0 0 0 0 0 0 0 0 0 0 0 0 0 0 0 0 0 0 0 0 0 0 0 0 0 0 0 0 0 0
0 0 0 0 0 0 0 0 0 0 0 0 0 0 0 0 0 0 0 0 0 0 0 0 0 0 0 0 0 0 0 0 0 0 0 0 0 0 0 0 0 0 0 0 0 0 0 0 0 0 0 0 0 0
0 0 0 0 0 0 0 0 0 0 0 0 0 0 0 0 0 0 0 0 0 0 0 0 0 0 0 0 0 0 0 0 0 0 0 0 0 0 0 0 0 0 0 0 0 0 0 0 0 0 0 0 0 0
0 0 0 0 0 0 0 0 -0 0 0 0 -0 0 0 0 0 0 0 0 0 0 0 0 0 0 0 0 0 0 0 0 0 0 0 0 0 0 0 0 0 0 0 0 0 0 0 0 0 0 0 0 0 0
0 0 0 0 0 0 0 0 0 0 0 0 0 0 0 0 0 0 0 0 0 0 0 0 0 0 0 0 0 0 0 0 0 0 0 0 0 0 0 0 0 0 0 0 0 0 0 0 0 0 0 0 0 0
0 0 0 0 0 0 0 0 0 0 0 0 0 0 0 0 0 0 0 0 0 0 0 0 0 0 0 0 0 0 0 0 0 0 0 0 0 0 0 0 0 0 0 0 0 0 0 0 0 0 0 0 0 0
0 0 0 0 0 0 0 0 0 0 0 0 0 0 0 0 0 0 0 0 0 0 0 0 0 0 0 0 0 0 0 0 0 0 0 0 0 0 0 0 0 0 0 0 0 0 0 0 0 0 0 0 0 0
0 0 0 0 0 0 0 0 0 0 0 0 0 0 0 0 0 0 0 0 0 0 0 0 0 0 0 0 0 0 0 0 0 0 0 0 0 0 0 0 0 0 0 0 0 0 0 0 0 0 0 0 0 0
0 0 0 0 0 0 0 0 0 0 0 -0 -0 0 0 0 0 0 0 0 0 0 0 0 0 0 0 0 0 0 0 0 0 0 0 0 0 0 0 0 0 0 0 0 0 0 0 0 0 0 0 0 0 0
0 0 0 0 0 0 0 0 -0 -0 0 -0 0 0 0 0 0 0 0 0 0 0 0 0 0 0 0 0 0 0 0 0 0 0 0 0 0 0 0 0 0 0 0 0 0 0 0 0 0 0 0 0 0 0
0 0 0 0 0 0 0 0 0 0 -0 0 0 0 0 0 0 0 0 0 0 0 0 0 0 0 0 0 0 0 0 0 0 0 0 0 0 0 0 0 0 0 0 0 0 0 0 0 0 0 0 0 0 0
0 0 0 0 0 0 -0 -0 -0 -0 0 0 0 0 0 0 0 0 0 0 0 0 0 0 0 0 0 0 0 0 0 0 0 0 0 0 0 0 0 0 0 0 0 0 0 0 0 0 0 0 0 0 0 0
0 0 0 -0 -0 -0 -0 -0 -0 -0 -0 0 0 0 0 0 0 0 0 0 0 0 0 0 0 0 0 0 0 0 0 0 0 0 0 0 0 0 0 0 0 0 0 0 0 0 0 0 0 0 0 0 0 0
0 0 -0 -0 -0 0 -0 -0 0 0 0 0 0 0 0 0 0 0 0 0 0 0 0 0 0 0 0 0 0 0 0 0 0 0 0 0 0 0 0 0 0 0 0 0 0 0 0 0 0 0 0 0 0 0
-0 -0 -0 -0 -0 -0 -0 0 0 0 0 0 0 0 0 0 0 0 0 0 0 0 0 0 0 0 0 0 0 0 0 0 0 0 0 0 0 0 0 0 0 0 0 0 0 0 0 0 0 0 0 0 0 0
Wind_Speed_500mb
48 48 46 41 38 36 33 32 32 29 29 27 25 26 29 35 37 32 22 16 14 15 46 30 28 46 53 34 6 25 15 10 7 6 5 5 6 5 4 6 7 5 4 2 4 5 3 21 3 7 7 4 0 3
47 49 47 41 39 36 33 33 33 31 30 28 24 26 28 33 35 33 25 14 16 23 34 35 33 32 39 32 13 18 5 17 9 1 6 8 6 4 5 7 6 4 12 9 13 9 9 19 20 13 10 8 14 6
46 49 46 40 39 36 33 34 34 33 31 29 25 26 28 33 35 32 31 26 19 17 31 25 23 34 28 7 15 2 4 14 11 16 10 5 7 5 3 8 6 9 12 4 12 5 18 22 17 18 19 5 5 12
47 49 45 39 39 36 34 35 36 34 31 29 25 27 29 33 35 33 34 25 26 15 12 14 19 25 22 20 17 11 11 19 22 28 17 5 3 11 7 5 6 6 14 10 8 10 32 23 16 10 7 12 9 7
51 49 44 39 38 35 35 37 36 35 32 30 27 27 31 34 35 34 36 29 24 21 12 28 47 28 27 28 21 22 14 24 26 14 3 4 8 4 9 7 12 41 5 8 3 17 20 13 12 11 11 8 9 12
51 48 42 39 37 35 36 38 36 35 32 30 27 28 31 35 32 30 9 9 17 19 14 7 22 42 34 32 27 24 23 28 21 11 6 3 6 6 4 6 8 50 45 45 28 27 14 17 20 14 11 21 26 27
52 50 42 39 37 36 37 37 37 35 32 30 27 29 32 36 31 24 11 10 11 15 11 11 11 24 37 37 32 35 28 25 8 7 3 6 1 6 6 6 14 17 17 17 14 10 32 45 31 35 39 39 35 38
52 49 42 41 38 37 36 37 36 33 30 28 27 30 36 36 38 39 34 33 28 24 14 7 10 20 30 20 27 21 8 3 3 5 5 3 6 10 4 11 22 11 18 8 22 24 15 16 32 30 30 34 38 49
47 45 43 42 38 37 36 37 34 31 28 25 26 31 36 34 23 23 15 17 22 23 9 9 7 8 18 28 9 11 4 7 14 7 4 10 8 6 7 7 12 24 14 30 29 27 27 32 38 45 49 44 50 55
45 44 44 42 40 38 37 35 31 28 22 22 23 12 10 13 17 10 9 10 19 19 18 14 31 12 22 7 9 7 5 6 5 5 18 8 4 22 9 14 16 25 22 17 15 36 41 45 43 45 45 48 52 58
46 46 45 43 40 38 36 33 29 22 15 12 7 11 12 8 16 9 11 17 20 12 20 29 49 23 49 7 6 19 7 5 4 7 7 6 5 4 14 19 14 14 30 34 34 38 38 37 34 33 37 38 31 32
47 47 45 42 40 38 36 32 27 20 12 10 19 29 11 10 13 10 8 11 10 11 11 26 21 40 12 7 5 14 7 8 6 3 8 6 5 18 23 14 23 35 47 47 43 42 37 36 34 35 35 36 41 45
46 44 43 41 40 39 37 31 24 18 20 17 10 9 13 15 0 11 12 8 8 4 6 20 5 21 10 5 5 2 9 5 7 8 7 6 25 25 26 37 51 53 48 35 32 32 34 40 39 39 35 36 38 43
42 41 38 40 43 41 35 28 21 17 13 10 12 8 9 10 11 10 6 4 17 29 9 8 11 5 7 5 4 5 7 3 4 6 7 5 42 45 45 41 45 56 47 41 39 36 35 35 38 37 41 47 53 54
39 32 37 47 45 39 32 25 22 25 11 13 14 10 13 22 1 26 11 6 30 22 48 15 8 13 6 7 6 8 5 9 11 7 5 25 50 50 54 50 45 43 41 41 37 37 35 36 38 39 48 50 52 53
33 32 43 42 40 35 31 29 28 22 10 11 16 12 12 10 7 30 31 32 33 67 71 6 3 7 3 8 11 14 7 9 5 15 40 49 51 47 42 40 38 38 32 28 29 34 43 46 43 44 43 50 51 46
38 34 24 31 39 36 31 28 24 14 13 12 12 21 23 22 24 40 34 11 11 10 3 6 6 12 11 9 8 10 6 11 36 45 46 43 42 39 35 35 30 27 30 43 43 46 49 40 34 42 50 54 44 44
32 18 18 30 43 46 52 24 13 15 17 21 17 10 36 46 51 23 40 28 17 16 20 10 18 13 11 8 6 11 25 42 40 39 34 30 28 29 28 23 23 31 36 37 36 36 37 35 41 45 47 45 47 48
29 24 35 53 56 32 20 19 15 10 28 21 27 24 36 44 34 39 45 42 38 33 19 15 14 9 8 16 20 26 28 26 26 28 31 32 31 30 28 27 36 41 34 28 39 39 33 34 41 43 44 44 46 45
31 36 49 46 46 15 13 14 14 8 8 8 47 30 19 21 37 44 48 48 45 27 22 12 11 21 27 28 22 23 20 17 18 19 22 29 23 27 32 29 35 29 28 30 32 35 34 35 38 42 41 42 47 48
34 41 41 33 38 9 11 5 7 4 10 7 40 18 17 33 25 28 32 32 32 17 13 18 31 30 25 25 25 19 23 26 24 25 18 19 24 25 30 30 27 29 27 33 35 34 34 38 39 43 44 43 48 46
22 33 26 36 15 18 18 17 16 11 11 28 50 20 15 13 14 23 18 33 16 17 16 23 21 21 22 19 23 23 23 16 18 19 25 23 26 26 30 29 32 27 27 32 32 36 35 39 42 45 43 46 49 47
36 38 23 14 14 9 13 14 6 14 5 7 25 11 12 11 12 14 16 14 12 16 20 24 22 19 14 18 23 26 28 22 23 23 22 25 28 27 26 29 33 29 24 30 30 36 39 39 45 47 46 50 51 51
40 16 7 6 2 10 11 16 9 8 27 17 6 12 9 12 14 16 8 8 10 9 13 16 15 13 25 29 20 22 26 23 21 24 27 27 28 27 28 28 28 28 28 32 33 38 40 44 47 49 50 52 54 56
6 6 8 7 8 14 9 6 5 8 11 15 15 11 10 12 7 7 5 8 10 13 17 20 24 28 24 18 17 20 23 23 23 24 26 28 26 23 25 26 27 30 36 44 39 45 44 48 48 48 52 56 58 62
8 5 8 13 10 8 8 5 5 18 8 3 9 14 13 12 8 8 6 16 17 14 16 24 25 21 16 17 16 17 19 18 18 21 26 28 26 25 27 30 34 34 42 43 44 46 49 49 49 53 56 57 59 61
5 10 13 12 6 20 5 25 38 19 16 14 7 8 7 9 8 5 17 21 17 13 17 23 23 21 13 13 15 15 16 17 22 21 22 22 21 25 26 29 34 41 47 38 40 45 46 49 52 55 58 60 60 59
5 18 17 25 28 36 11 14 14 14 11 22 10 13 8 8 5 15 22 24 26 28 24 21 21 12 12 13 11 13 17 14 16 20 21 18 22 25 31 33 36 42 37 37 43 46 47 53 55 56 58 60 60 61
15 17 27 37 22 25 30 21 22 17 20 14 8 7 8 10 29 37 31 29 24 24 16 14 9 7 8 11 15 17 18 21 23 26 27 28 35 36 38 42 46 39 40 42 45 47 48 51 54 55 56 57 59 62
16 17 17 25 15 14 21 21 26 25 27 31 38 53 53 44 42 39 31 25 18 13 13 10 10 10 13 14 16 17 18 22 22 24 22 30 34 36 44 49 44 40 44 47 50 51 54 53 54 56 57 60 65 66
16 19 19 22 14 28 42 49 56 62 63 62 54 56 42 33 31 26 17 13 9 10 12 12 11 13 14 16 19 20 20 23 22 22 27 31 29 36 42 43 37 42 47 50 51 52 52 55 57 58 62 64 64 66
14 14 23 14 23 32 27 24 34 44 42 42 39 33 28 21 15 12 13 8 8 10 14 11 12 14 15 16 17 19 21 23 27 31 38 29 35 40 43 42 40 44 44 46 49 50 52 54 57 61 63 63 67 69
57 69 64 39 25 26 19 17 10 11 12 9 12 15 17 10 7 4 5 6 5 4 6 10 11 13 16 17 19 20 23 25 28 32 32 34 38 45 45 44 42 42 40 45 47 51 55 56 58 60 62 63 65 67
Wind_Direction_500mb
277 279 284 284 279 275 271 264 264 264 268 275 290 306 321 330 334 331 341 34 279 288 297 305 327 340 342 354 39 335 359 338 76 74 132 160 187 207 286 72 256 276 343 22 313 1 181 197 200 285 169 90 78 132
272 274 279 279 275 271 266 259 258 259 263 270 283 299 314 323 330 327 322 324 276 264 261 296 289 297 302 307 314 328 347 15 345 270 177 142 176 237 180 212 248 207 192 178 192 227 184 185 115 84 60 33 20 53
267 270 274 273 269 266 259 254 254 255 258 266 277 292 306 316 323 318 311 329 312 291 295 271 290 280 249 246 277 40 355 343 319 324 291 266 106 198 178 235 235 244 166 227 178 207 182 161 123 85 43 97 40 29
267 268 270 268 263 260 252 249 250 252 256 263 273 287 299 309 315 309 302 300 296 292 275 289 313 326 211 229 229 293 288 305 329 303 261 263 166 193 225 141 211 230 141 221 113 72 107 103 84 65 39 34 32 10
267 264 264 262 255 251 245 245 246 249 254 261 271 283 296 306 310 304 293 284 260 228 315 296 297 274 233 238 248 245 256 298 305 300 251 299 101 144 230 131 41 341 231 20 144 86 109 96 78 59 51 359 311 295
261 257 258 255 245 241 240 241 244 247 252 259 268 281 294 305 307 318 328 21 201 185 290 285 294 297 218 215 218 249 249 274 282 309 332 350 110 19 352 98 52 17 341 12 45 57 50 48 62 60 328 328 348 336
259 251 250 242 235 233 236 238 241 246 251 259 268 282 291 296 290 279 244 120 134 185 248 259 269 274 206 202 214 238 255 241 296 316 282 359 273 68 53 65 240 251 326 342 38 6 18 11 4 32 16 348 2 0
253 241 240 229 228 229 233 235 240 244 251 259 270 280 287 286 285 272 246 247 251 265 254 269 277 295 218 192 213 187 183 294 281 175 177 197 345 67 98 248 291 268 354 51 53 56 85 20 19 13 356 356 6 16
235 231 225 222 222 226 230 234 238 242 250 261 274 286 288 273 259 268 282 226 226 216 273 265 248 271 165 221 139 110 123 62 318 210 211 69 21 4 313 271 261 282 358 45 37 26 25 34 40 20 11 8 5 357
224 219 217 216 219 224 227 232 235 239 247 268 286 273 259 234 213 235 184 197 200 214 225 251 263 288 276 277 51 114 178 208 226 214 107 74 275 290 326 340 25 51 39 23 26 62 28 26 22 16 7 2 8 9
214 212 212 213 217 221 224 226 229 233 250 268 242 234 299 236 185 220 225 196 197 215 212 233 231 240 268 205 183 204 191 219 224 190 146 106 100 254 36 40 63 60 64 59 38 37 32 33 34 31 25 24 8 7
206 208 207 211 216 218 218 219 220 220 203 221 283 296 253 212 215 223 209 208 211 208 229 191 215 214 227 133 172 184 213 199 63 126 62 64 343 134 136 95 57 63 64 63 62 56 60 61 45 37 35 32 27 28
202 202 205 211 214 212 211 211 217 229 238 253 254 250 208 212 37 223 216 235 206 241 186 163 204 170 148 185 246 260 22 86 88 64 83 335 337 6 22 47 56 54 55 53 47 45 39 36 22 26 20 18 9 8
197 198 205 212 209 205 201 203 210 228 205 223 229 286 189 211 208 224 265 28 329 337 160 227 105 90 121 169 224 66 1 285 111 79 80 323 50 49 64 66 65 58 55 46 35 27 27 36 35 18 7 360 360 1
190 205 215 207 198 194 195 200 209 200 211 241 229 219 217 244 21 349 253 117 5 353 316 148 137 153 203 217 98 78 324 59 34 57 90 65 69 70 61 55 49 46 44 36 21 12 10 12 16 1 357 7 20 14
207 227 212 190 190 189 196 197 194 187 252 237 233 263 223 192 66 325 302 126 197 209 245 357 126 164 275 36 55 16 33 40 81 61 68 71 66 62 56 47 32 18 10 10 7 1 4 10 19 23 25 15 11 12
219 214 186 187 192 189 187 177 172 215 240 248 244 258 269 49 107 219 84 41 38 58 266 253 48 56 34 50 54 17 34 60 75 69 69 63 59 50 38 29 28 26 4 7 25 33 24 26 25 20 17 14 16 12
204 200 189 178 184 173 166 170 212 223 238 253 278 90 78 66 47 15 50 36 32 19 38 41 28 45 42 54 64 5 76 84 80 77 64 49 39 35 35 38 16 11 27 35 33 26 22 19 28 20 13 8 6 8
194 184 161 156 156 147 176 198 216 250 225 250 130 125 103 94 80 72 72 65 62 90 78 54 48 42 55 51 80 61 63 72 81 52 48 41 40 26 38 30 21 33 37 32 23 20 16 16 17 9 7 6 6 358
182 171 167 167 176 197 199 175 194 247 279 137 72 92 92 95 86 66 63 59 65 59 52 47 58 62 69 74 78 76 60 68 74 54 37 30 34 15 18 25 18 26 29 21 23 11 14 16 9 5 360 358 356 352
168 171 180 192 199 258 347 260 138 309 334 93 121 103 84 80 58 47 41 35 60 36 68 91 89 80 81 89 87 73 54 54 52 46 26 13 20 23 15 13 17 20 25 20 15 5 8 8 360 358 354 353 351 345
166 176 176 172 188 200 236 171 153 194 22 173 161 152 99 81 52 44 63 50 66 39 60 79 90 94 81 59 52 65 61 43 39 31 33 24 15 16 14 25 24 25 18 13 3 358 358 355 352 351 346 347 344 341
160 157 164 207 225 192 285 287 250 169 81 77 116 97 72 71 89 74 74 60 82 77 102 90 88 118 82 62 50 59 49 36 33 28 23 19 11 14 16 17 16 15 14 6 356 349 347 349 347 344 343 344 342 341
158 177 195 136 24 74 277 251 205 185 138 147 152 107 98 111 96 68 75 75 93 104 129 117 121 77 67 62 53 40 38 29 27 20 17 13 7 12 12 14 9 9 2 359 353 344 342 346 342 340 341 343 341 341
134 66 86 7 272 223 200 224 181 70 49 95 92 91 109 94 73 70 82 116 133 122 115 110 94 74 65 56 51 35 26 25 19 14 11 8 1 0 1 2 359 358 350 357 345 339 339 339 338 340 342 340 338 338
100 95 125 236 211 207 190 191 196 142 129 120 90 102 79 68 74 78 89 155 147 137 119 110 90 63 56 39 32 23 15 12 15 18 6 3 7 8 4 1 354 348 343 347 339 338 339 338 339 340 339 337 336 335
116 186 200 28 25 5 308 61 43 50 50 37 27 84 85 76 82 91 147 155 142 122 117 116 78 40 33 23 16 15 7 10 13 10 359 360 5 4 0 357 354 342 337 339 338 338 337 336 339 337 335 334 333 333
307 26 77 52 60 34 51 43 40 30 24 344 51 39 55 59 102 156 154 136 113 104 96 84 59 30 19 15 4 5 359 351 3 355 358 353 360 355 347 341 335 329 336 342 338 338 340 335 335 336 334 332 332 333
71 88 75 58 60 47 31 29 22 18 344 342 73 85 95 94 135 137 129 120 99 67 39 72 55 22 17 12 8 10 353 4 7 358 355 357 352 349 342 337 336 339 341 338 335 333 331 332 333 334 334 333 332 331
45 54 89 48 53 50 30 42 41 38 58 97 105 113 108 117 122 117 100 85 79 79 67 55 33 26 20 9 2 2 357 4 2 355 356 350 341 335 333 335 336 340 337 335 334 334 334 336 335 336 336 335 335 336
100 75 74 74 80 109 100 86 77 75 82 89 100 101 107 114 99 85 72 83 101 84 65 43 29 15 14 6 358 352 347 351 347 337 339 339 331 330 333 335 339 337 333 333 333 333 335 335 336 337 335 336 336 337
73 108 123 111 139 147 115 73 74 84 87 91 97 100 105 103 83 89 68 81 68 49 45 33 19 5 356 356 347 344 339 338 331 328 336 334 345 346 345 347 337 328 330 332 336 336 336 335 335 335 335 335 336 338
96 101 103 102 131 157 125 111 94 91 72 63 52 61 64 76 83 76 85 45 58 68 43 17 7 350 347 344 342 338 338 335 326 332 335 344 344 344 347 343 340 339 340 338 339 338 337 337 334 336 335 336 338 337
Wind_Speed_850mb
48 48 46 41 38 36 33 32 32 29 29 27 25 26 29 35 37 32 22 16 14 15 46 30 28 46 53 34 6 25 15 10 7 6 5 5 6 5 4 6 7 5 4 2 4 5 3 21 3 7 7 4 0 3
47 49 47 41 39 36 33 33 33 31 30 28 24 26 28 33 35 33 25 14 16 23 34 35 33 32 39 32 13 18 5 17 9 1 6 8 6 4 5 7 6 4 12 9 13 9 9 19 20 13 10 8 14 6
46 49 46 40 39 36 33 34 34 33 31 29 25 26 28 33 35 32 31 26 19 17 31 25 23 34 28 7 15 2 4 14 11 16 10 5 7 5 3 8 6 9 12 4 12 5 18 22 17 18 19 5 5 12
47 49 45 39 39 36 34 35 36 34 31 29 25 27 29 33 35 33 34 25 26 15 12 14 19 25 22 20 17 11 11 19 22 28 17 5 3 11 7 5 6 6 14 10 8 10 32 23 16 10 7 12 9 7
51 49 44 39 38 35 35 37 36 35 32 30 27 27 31 34 35 34 36 29 24 21 12 28 47 28 27 28 21 22 14 24 26 14 3 4 8 4 9 7 12 41 5 8 3 17 20 13 12 11 11 8 9 12
51 48 42 39 37 35 36 38 36 35 32 30 27 28 31 35 32 30 9 9 17 19 14 7 22 42 34 32 27 24 23 28 21 11 6 3 6 6 4 6 8 50 45 45 28 27 14 17 20 14 11 21 26 27
52 50 42 39 37 36 37 37 37 35 32 30 27 29 32 36 31 24 11 10 11 15 11 11 11 24 37 37 32 35 28 25 8 7 3 6 1 6 6 6 14 17 17 17 14 10 32 45 31 35 39 39 35 38
52 49 42 41 38 37 36 37 36 33 30 28 27 30 36 36 38 39 34 33 28 24 14 7 10 20 30 20 27 21 8 3 3 5 5 3 6 10 4 11 22 11 18 8 22 24 15 16 32 30 30 34 38 49
47 45 43 42 38 37 36 37 34 31 28 25 26 31 36 34 23 23 15 17 22 23 9 9 7 8 18 28 9 11 4 7 14 7 4 10 8 6 7 7 12 24 14 30 29 27 27 32 38 45 49 44 50 55
45 44 44 42 40 38 37 35 31 28 22 22 23 12 10 13 17 10 9 10 19 19 18 14 31 12 22 7 9 7 5 6 5 5 18 8 4 22 9 14 16 25 22 17 15 36 41 45 43 45 45 48 52 58
46 46 45 43 40 38 36 33 29 22 15 12 7 11 12 8 16 9 11 17 20 12 20 29 49 23 49 7 6 19 7 5 4 7 7 6 5 4 14 19 14 14 30 34 34 38 38 37 34 33 37 38 31 32
47 47 45 42 40 38 36 32 27 20 12 10 19 29 11 10 13 10 8 11 10 11 11 26 21 40 12 7 5 14 7 8 6 3 8 6 5 18 23 14 23 35 47 47 43 42 37 36 34 35 35 36 41 45
46 44 43 41 40 39 37 31 24 18 20 17 10 9 13 15 0 11 12 8 8 4 6 20 5 21 10 5 5 2 9 5 7 8 7 6 25 25 26 37 51 53 48 35 32 32 34 40 39 39 35 36 38 43
42 41 38 40 43 41 35 28 21 17 13 10 12 8 9 10 11 10 6 4 17 29 9 8 11 5 7 5 4 5 7 3 4 6 7 5 42 45 45 41 45 56 47 41 39 36 35 35 38 37 41 47 53 54
39 32 37 47 45 39 32 25 22 25 11 13 14 10 13 22 1 26 11 6 30 22 48 15 8 13 6 7 6 8 5 9 11 7 5 25 50 50 54 50 45 43 41 41 37 37 35 36 38 39 48 50 52 53
33 32 43 42 40 35 31 29 28 22 10 11 16 12 12 10 7 30 31 32 33 67 71 6 3 7 3 8 11 14 7 9 5 15 40 49 51 47 42 40 38 38 32 28 29 34 43 46 43 44 43 50 51 46
38 34 24 31 39 36 31 28 24 14 13 12 12 21 23 22 24 40 34 11 11 10 3 6 6 12 11 9 8 10 6 11 36 45 46 43 42 39 35 35 30 27 30 43 43 46 49 40 34 42 50 54 44 44
32 18 18 30 43 46 52 24 13 15 17 21 17 10 36 46 51 23 40 28 17 16 20 10 18 13 11 8 6 11 25 42 40 39 34 30 28 29 28 23 23 31 36 37 36 36 37 35 41 45 47 45 47 48
29 24 35 53 56 32 20 19 15 10 28 21 27 24 36 44 34 39 45 42 38 33 19 15 14 9 8 16 20 26 28 26 26 28 31 32 31 30 28 27 36 41 34 28 39 39 33 34 41 43 44 44 46 45
31 36 49 46 46 15 13 14 14 8 8 8 47 30 19 21 37 44 48 48 45 27 22 12 11 21 27 28 22 23 20 17 18 19 22 29 23 27 32 29 35 29 28 30 32 35 34 35 38 42 41 42 47 48
34 41 41 33 38 9 11 5 7 4 10 7 40 18 17 33 25 28 32 32 32 17 13 18 31 30 25 25 25 19 23 26 24 25 18 19 24 25 30 30 27 29 27 33 35 34 34 38 39 43 44 43 48 46
22 33 26 36 15 18 18 17 16 11 11 28 50 20 15 13 14 23 18 33 16 17 16 23 21 21 22 19 23 23 23 16 18 19 25 23 26 26 30 29 32 27 27 32 32 36 35 39 42 45 43 46 49 47
36 38 23 14 14 9 13 14 6 14 5 7 25 11 12 11 12 14 16 14 12 16 20 24 22 19 14 18 23 26 28 22 23 23 22 25 28 27 26 29 33 29 24 30 30 36 39 39 45 47 46 50 51 51
40 16 7 6 2 10 11 16 9 8 27 17 6 12 9 12 14 16 8 8 10 9 13 16 15 13 25 29 20 22 26 23 21 24 27 27 28 27 28 28 28 28 28 32 33 38 40 44 47 49 50 52 54 56
6 6 8 7 8 14 9 6 5 8 11 15 15 11 10 12 7 7 5 8 10 13 17 20 24 28 24 18 17 20 23 23 23 24 26 28 26 23 25 26 27 30 36 44 39 45 44 48 48 48 52 56 58 62
8 5 8 13 10 8 8 5 5 18 8 3 9 14 13 12 8 8 6 16 17 14 16 24 25 21 16 17 16 17 19 18 18 21 26 28 26 25 27 30 34 34 42 43 44 46 49 49 49 53 56 57 59 61
5 10 13 12 6 20 5 25 38 19 16 14 7 8 7 9 8 5 17 21 17 13 17 23 23 21 13 13 15 15 16 17 22 21 22 22 21 25 26 29 34 41 47 38 40 45 46 49 52 55 58 60 60 59
5 18 17 25 28 36 11 14 14 14 11 22 10 13 8 8 5 15 22 24 26 28 24 21 21 12 12 13 11 13 17 14 16 20 21 18 22 25 31 33 36 42 37 37 43 46 47 53 55 56 58 60 60 61
15 17 27 37 22 25 30 21 22 17 20 14 8 7 8 10 29 37 31 29 24 24 16 14 9 7 8 11 15 17 18 21 23 26 27 28 35 36 38 42 46 39 40 42 45 47 48 51 54 55 56 57 59 62
16 17 17 25 15 14 21 21 26 25 27 31 38 53 53 44 42 39 31 25 18 13 13 10 10 10 13 14 16 17 18 22 22 24 22 30 34 36 44 49 44 40 44 47 50 51 54 53 54 56 57 60 65 66
16 19 19 22 14 28 42 49 56 62 63 62 54 56 42 33 31 26 17 13 9 10 12 12 11 13 14 16 19 20 20 23 22 22 27 31 29 36 42 43 37 42 47 50 51 52 52 55 57 58 62 64 64 66
14 14 23 14 23 32 27 24 34 44 42 42 39 33 28 21 15 12 13 8 8 10 14 11 12 14 15 16 17 19 21 23 27 31 38 29 35 40 43 42 40 44 44 46 49 50 52 54 57 61 63 63 67 69
57 69 64 39 25 26 19 17 10 11 12 9 12 15 17 10 7 4 5 6 5 4 6 10 11 13 16 17 19 20 23 25 28 32 32 34 38 45 45 44 42 42 40 45 47 51 55 56 58 60 62 63 65 67
Wind_Direction_850mb
277 279 284 284 279 275 271 264 264 264 268 275 290 306 321 330 334 331 341 34 279 288 297 305 327 340 342 354 39 335 359 338 76 74 132 160 187 207 286 72 256 276 343 22 313 1 181 197 200 285 169 90 78 132
272 274 279 279 275 271 266 259 258 259 263 270 283 299 314 323 330 327 322 324 276 264 261 296 289 297 302 307 314 328 347 15 345 270 177 142 176 237 180 212 248 207 192 178 192 227 184 185 115 84 60 33 20 53
267 270 274 273 269 266 259 254 254 255 258 266 277 292 306 316 323 318 311 329 312 291 295 271 290 280 249 246 277 40 355 343 319 324 291 266 106 198 178 235 235 244 166 227 178 207 182 161 123 85 43 97 40 29
267 268 270 268 263 260 252 249 250 252 256 263 273 287 299 309 315 309 302 300 296 292 275 289 313 326 211 229 229 293 288 305 329 303 261 263 166 193 225 141 211 230 141 221 113 72 107 103 84 65 39 34 32 10
267 264 264 262 255 251 245 245 246 249 254 261 271 283 296 306 310 304 293 284 260 228 315 296 297 274 233 238 248 245 256 298 305 300 251 299 101 144 230 131 41 341 231 20 144 86 109 96 78 59 51 359 311 295
261 257 258 255 245 241 240 241 244 247 252 259 268 281 294 305 307 318 328 21 201 185 290 285 294 297 218 215 218 249 249 274 282 309 332 350 110 19 352 98 52 17 341 12 45 57 50 48 62 60 328 328 348 336
259 251 250 242 235 233 236 238 241 246 251 259 268 282 291 296 290 279 244 120 134 185 248 259 269 274 206 202 214 238 255 241 296 316 282 359 273 68 53 65 240 251 326 342 38 6 18 11 4 32 16 348 2 0
253 241 240 229 228 229 233 235 240 244 251 259 270 280 287 286 285 272 246 247 251 265 254 269 277 295 218 192 213 187 183 294 281 175 177 197 345 67 98 248 291 268 354 51 53 56 85 20 19 13 356 356 6 16
235 231 225 222 222 226 230 234 238 242 250 261 274 286 288 273 259 268 282 226 226 216 273 265 248 271 165 221 139 110 123 62 318 210 211 69 21 4 313 271 261 282 358 45 37 26 25 34 40 20 11 8 5 357
224 219 217 216 219 224 227 232 235 239 247 268 286 273 259 234 213 235 184 197 200 214 225 251 263 288 276 277 51 114 178 208 226 214 107 74 275 290 326 340 25 51 39 23 26 62 28 26 22 16 7 2 8 9
214 212 212 213 217 221 224 226 229 233 250 268 242 234 299 236 185 220 225 196 197 215 212 233 231 240 268 205 183 204 191 219 224 190 146 106 100 254 36 40 63 60 64 59 38 37 32 33 34 31 25 24 8 7
206 208 207 211 216 218 218 219 220 220 203 221 283 296 253 212 215 223 209 208 211 208 229 191 215 214 227 133 172 184 213 199 63 126 62 64 343 134 136 95 57 63 64 63 62 56 60 61 45 37 35 32 27 28
202 202 205 211 214 212 211 211 217 229 238 253 254 250 208 212 37 223 216 235 206 241 186 163 204 170 148 185 246 260 22 86 88 64 83 335 337 6 22 47 56 54 55 53 47 45 39 36 22 26 20 18 9 8
197 198 205 212 209 205 201 203 210 228 205 223 229 286 189 211 208 224 265 28 329 337 160 227 105 90 121 169 224 66 1 285 111 79 80 323 50 49 64 66 65 58 55 46 35 27 27 36 35 18 7 360 360 1
190 205 215 207 198 194 195 200 209 200 211 241 229 219 217 244 21 349 253 117 5 353 316 148 137 153 203 217 98 78 324 59 34 57 90 65 69 70 61 55 49 46 44 36 21 12 10 12 16 1 357 7 20 14
207 227 212 190 190 189 196 197 194 187 252 237 233 263 223 192 66 325 302 126 197 209 245 357 126 164 275 36 55 16 33 40 81 61 68 71 66 62 56 47 32 18 10 10 7 1 4 10 19 23 25 15 11 12
219 214 186 187 192 189 187 177 172 215 240 248 244 258 269 49 107 219 84 41 38 58 266 253 48 56 34 50 54 17 34 60 75 69 69 63 59 50 38 29 28 26 4 7 25 33 24 26 25 20 17 14 16 12
204 200 189 178 184 173 166 170 212 223 238 253 278 90 78 66 47 15 50 36 32 19 38 41 28 45 42 54 64 5 76 84 80 77 64 49 39 35 35 38 16 11 27 35 33 26 22 19 28 20 13 8 6 8
194 184 161 156 156 147 176 198 216 250 225 250 130 125 103 94 80 72 72 65 62 90 78 54 48 42 55 51 80 61 63 72 81 52 48 41 40 26 38 30 21 33 37 32 23 20 16 16 17 9 7 6 6 358
182 171 167 167 176 197 199 175 194 247 279 137 72 92 92 95 86 66 63 59 65 59 52 47 58 62 69 74 78 76 60 68 74 54 37 30 34 15 18 25 18 26 29 21 23 11 14 16 9 5 360 358 356 352
168 171 180 192 199 258 347 260 138 309 334 93 121 103 84 80 58 47 41 35 60 36 68 91 89 80 81 89 87 73 54 54 52 46 26 13 20 23 15 13 17 20 25 20 15 5 8 8 360 358 354 353 351 345
166 176 176 172 188 200 236 171 153 194 22 173 161 152 99 81 52 44 63 50 66 39 60 79 90 94 81 59 52 65 61 43 39 31 33 24 15 16 14 25 24 25 18 13 3 358 358 355 352 351 346 347 344 341
160 157 164 207 225 192 285 287 250 169 81 77 116 97 72 71 89 74 74 60 82 77 102 90 88 118 82 62 50 59 49 36 33 28 23 19 11 14 16 17 16 15 14 6 356 349 347 349 347 344 343 344 342 341
158 177 195 136 24 74 277 251 205 185 138 147 152 107 98 111 96 68 75 75 93 104 129 117 121 77 67 62 53 40 38 29 27 20 17 13 7 12 12 14 9 9 2 359 353 344 342 346 342 340 341 343 341 341
134 66 86 7 272 223 200 224 181 70 49 95 92 91 109 94 73 70 82 116 133 122 115 110 94 74 65 56 51 35 26 25 19 14 11 8 1 0 1 2 359 358 350 357 345 339 339 339 338 340 342 340 338 338
100 95 125 236 211 207 190 191 196 142 129 120 90 102 79 68 74 78 89 155 147 137 119 110 90 63 56 39 32 23 15 12 15 18 6 3 7 8 4 1 354 348 343 347 339 338 339 338 339 340 339 337 336 335
116 186 200 28 25 5 308 61 43 50 50 37 27 84 85 76 82 91 147 155 142 122 117 116 78 40 33 23 16 15 7 10 13 10 359 360 5 4 0 357 354 342 337 339 338 338 337 336 339 337 335 334 333 333
307 26 77 52 60 34 51 43 40 30 24 344 51 39 55 59 102 156 154 136 113 104 96 84 59 30 19 15 4 5 359 351 3 355 358 353 360 355 347 341 335 329 336 342 338 338 340 335 335 336 334 332 332 333
71 88 75 58 60 47 31 29 22 18 344 342 73 85 95 94 135 137 129 120 99 67 39 72 55 22 17 12 8 10 353 4 7 358 355 357 352 349 342 337 336 339 341 338 335 333 331 332 333 334 334 333 332 331
45 54 89 48 53 50 30 42 41 38 58 97 105 113 108 117 122 117 100 85 79 79 67 55 33 26 20 9 2 2 357 4 2 355 356 350 341 335 333 335 336 340 337 335 334 334 334 336 335 336 336 335 335 336
100 75 74 74 80 109 100 86 77 75 82 89 100 101 107 114 99 85 72 83 101 84 65 43 29 15 14 6 358 352 347 351 347 337 339 339 331 330 333 335 339 337 333 333 333 333 335 335 336 337 335 336 336 337
73 108 123 111 139 147 115 73 74 84 87 91 97 100 105 103 83 89 68 81 68 49 45 33 19 5 356 356 347 344 339 338 331 328 336 334 345 346 345 347 337 328 330 332 336 336 336 335 335 335 335 335 336 338
96 101 103 102 131 157 125 111 94 91 72 63 52 61 64 76 83 76 85 45 58 68 43 17 7 350 347 344 342 338 338 335 326 332 335 344 344 344 347 343 340 339 340 338 339 338 337 337 334 336 335 336 338 337